#�ϑ�����,���ϕ���,���ϕ���,�ő啗��,�ő啗����������,�ő�u�ԕ���,�ő�u�ԕ�����������
#(�N����),(m/s)   ,(16����),(m/s)   ,(16����)        ,(m/s)       ,(16����)            
2012/3/31 0:01,2.6,2,2.6,2,3.5,2
2012/3/31 0:02,2.5,2,2.6,2,3.9,1
2012/3/31 0:03,2.5,2,2.6,2,3.7,1
2012/3/31 0:04,2.6,2,2.6,2,4.2,1
2012/3/31 0:05,2.5,2,2.6,2,3.5,2
2012/3/31 0:06,2.5,2,2.5,2,4.5,2
2012/3/31 0:07,2.5,2,2.5,2,3.7,2
2012/3/31 0:08,2.5,2,2.5,2,3.5,2
2012/3/31 0:09,2.5,2,2.5,2,3.8,2
2012/3/31 0:10,2.5,2,2.5,2,4.5,2
2012/3/31 0:11,2.5,2,2.5,2,3.8,2
2012/3/31 0:12,2.4,2,2.5,2,2.7,16
2012/3/31 0:13,2.3,1,2.4,2,3.3,2
2012/3/31 0:14,2.3,2,2.3,2,3.9,1
2012/3/31 0:15,2.2,1,2.3,2,2.6,2
2012/3/31 0:16,2.2,1,2.2,2,3.2,1
2012/3/31 0:17,2.2,1,2.2,2,3,2
2012/3/31 0:18,2.1,1,2.2,2,3.2,2
2012/3/31 0:19,2,1,2.1,2,3.2,2
2012/3/31 0:20,1.9,1,2,2,1.8,2
2012/3/31 0:21,1.8,1,1.9,2,1.8,2
2012/3/31 0:22,1.7,1,1.8,2,2.2,16
2012/3/31 0:23,1.6,1,1.7,1,2,16
2012/3/31 0:24,1.5,1,1.6,2,2.6,2
2012/3/31 0:25,1.5,1,1.5,1,2.2,1
2012/3/31 0:26,1.4,1,1.5,1,1.6,2
2012/3/31 0:27,1.2,1,1.4,1,1.5,2
2012/3/31 0:28,1.1,1,1.2,1,1.4,16
2012/3/31 0:29,1,1,1.1,1,1.1,2
2012/3/31 0:30,1,1,1,1,1.6,2
2012/3/31 0:31,1,1,1,1,1.4,1
2012/3/31 0:32,0.9,1,0.9,1,1.4,4
2012/3/31 0:33,0.8,1,0.9,1,0.3,1
2012/3/31 0:34,0.7,2,0.8,1,0.5,5
2012/3/31 0:35,0.5,2,0.7,1,0.4,6
2012/3/31 0:36,0.5,2,0.5,1,1,15
2012/3/31 0:37,0.5,2,0.5,1,1.5,15
2012/3/31 0:38,0.5,2,0.5,1,1.5,16
2012/3/31 0:39,0.6,2,0.6,1,2.6,1
2012/3/31 0:40,0.7,2,0.7,1,2.1,16
2012/3/31 0:41,0.7,2,0.7,1,1.8,16
2012/3/31 0:42,0.8,1,0.8,1,2.2,1
2012/3/31 0:43,0.9,1,0.9,1,2.1,16
2012/3/31 0:44,1,16,1,1,2,16
2012/3/31 0:45,1.2,16,1.2,16,2.1,1
2012/3/31 0:46,1.4,16,1.4,16,2.9,1
2012/3/31 0:47,1.5,16,1.5,16,2.7,16
2012/3/31 0:48,1.6,16,1.6,16,2.5,1
2012/3/31 0:49,1.5,1,1.6,16,1.5,2
2012/3/31 0:50,1.5,1,1.5,16,1.1,16
2012/3/31 0:51,1.5,1,1.5,16,1.3,16
2012/3/31 0:52,1.4,1,1.5,16,1.9,16
2012/3/31 0:53,1.4,16,1.4,16,2,15
2012/3/31 0:54,1.4,1,1.4,16,2.6,16
2012/3/31 0:55,1.4,1,1.4,16,1.8,1
2012/3/31 0:56,1.3,1,1.4,16,1.5,16
2012/3/31 0:57,1.1,1,1.2,16,1.3,15
2012/3/31 0:58,1,1,1.1,16,1.3,1
2012/3/31 0:59,1.1,1,1.1,1,2.2,16
2012/3/31 1:00,1.1,16,1.1,1,2.4,16
2012/3/31 1:01,1.2,16,1.2,1,2.1,1
2012/3/31 1:02,1.2,16,1.3,1,2.9,1
2012/3/31 1:03,1.3,16,1.3,16,2.7,16
2012/3/31 1:04,1.2,16,1.3,1,2.1,1
2012/3/31 1:05,1.2,16,1.3,1,2,16
2012/3/31 1:06,1.3,16,1.3,16,2,1
2012/3/31 1:07,1.4,16,1.4,16,2.5,16
2012/3/31 1:08,1.6,16,1.6,16,2.6,16
2012/3/31 1:09,1.6,16,1.6,16,2.4,15
2012/3/31 1:10,1.6,16,1.6,16,2.1,1
2012/3/31 1:11,1.6,16,1.6,16,2,16
2012/3/31 1:12,1.5,16,1.6,16,2.5,1
2012/3/31 1:13,1.5,1,1.5,16,2.1,2
2012/3/31 1:14,1.6,1,1.6,16,2.1,1
2012/3/31 1:15,1.6,1,1.6,16,2.7,1
2012/3/31 1:16,1.6,1,1.6,16,2,16
2012/3/31 1:17,1.6,1,1.6,16,2,1
2012/3/31 1:18,1.5,1,1.6,16,2.5,1
2012/3/31 1:19,1.5,1,1.5,16,2.9,2
2012/3/31 1:20,1.5,1,1.5,16,2.9,2
2012/3/31 1:21,1.5,1,1.5,16,1.8,1
2012/3/31 1:22,1.5,1,1.5,1,2.1,1
2012/3/31 1:23,1.5,1,1.5,1,2.2,1
2012/3/31 1:24,1.5,2,1.5,1,3.3,2
2012/3/31 1:25,1.4,2,1.5,1,2.2,2
2012/3/31 1:26,1.5,2,1.5,1,3,2
2012/3/31 1:27,1.4,2,1.5,1,2.6,2
2012/3/31 1:28,1.5,2,1.5,1,2.7,2
2012/3/31 1:29,1.5,2,1.5,1,3,2
2012/3/31 1:30,1.4,2,1.5,1,2.1,2
2012/3/31 1:31,1.5,2,1.5,1,2.4,1
2012/3/31 1:32,1.5,2,1.5,1,2.2,2
2012/3/31 1:33,1.4,2,1.5,1,2.2,15
2012/3/31 1:34,1.3,2,1.4,2,1.9,2
2012/3/31 1:35,1.4,1,1.4,2,2.4,2
2012/3/31 1:36,1.3,1,1.4,2,2.5,2
2012/3/31 1:37,1.3,1,1.3,2,1.8,1
2012/3/31 1:38,1.2,1,1.2,2,3.1,2
2012/3/31 1:39,1.3,1,1.3,2,3.8,2
2012/3/31 1:40,1.5,1,1.5,2,3.5,2
2012/3/31 1:41,1.6,1,1.6,1,3.6,1
2012/3/31 1:42,1.7,1,1.7,1,3.8,2
2012/3/31 1:43,1.9,1,1.9,1,4.1,2
2012/3/31 1:44,2,1,2,1,3.2,2
2012/3/31 1:45,2.1,1,2.1,1,3.8,2
2012/3/31 1:46,2.2,1,2.2,1,4.3,1
2012/3/31 1:47,2.4,1,2.4,1,3,1
2012/3/31 1:48,2.4,1,2.4,1,3.3,1
2012/3/31 1:49,2.3,1,2.4,1,1.8,3
2012/3/31 1:50,2.2,1,2.2,1,2.5,1
2012/3/31 1:51,2.1,1,2.2,1,3.3,2
2012/3/31 1:52,2.1,1,2.1,1,3.3,1
2012/3/31 1:53,1.9,1,2.1,1,2.2,1
2012/3/31 1:54,1.7,1,1.8,1,2.1,1
2012/3/31 1:55,1.5,1,1.7,1,1.5,1
2012/3/31 1:56,1.4,1,1.5,1,1.8,2
2012/3/31 1:57,1.3,1,1.4,1,1.9,2
2012/3/31 1:58,1.2,1,1.3,1,2,1
2012/3/31 1:59,1.3,1,1.3,1,1.9,1
2012/3/31 2:00,1.2,1,1.3,1,1.9,16
2012/3/31 2:01,1.2,1,1.2,1,3,2
2012/3/31 2:02,1.2,1,1.2,1,3.6,2
2012/3/31 2:03,1.4,1,1.4,1,3.5,2
2012/3/31 2:04,1.5,1,1.5,1,3,1
2012/3/31 2:05,1.7,1,1.7,1,3.6,1
2012/3/31 2:06,1.8,1,1.8,1,3.6,2
2012/3/31 2:07,1.9,1,1.9,1,4.1,2
2012/3/31 2:08,2,1,2,1,2.9,1
2012/3/31 2:09,2.1,1,2.1,1,3.2,2
2012/3/31 2:10,2.1,1,2.1,1,2.4,1
2012/3/31 2:11,2.1,1,2.1,1,3.3,2
2012/3/31 2:12,2.1,1,2.2,1,3,1
2012/3/31 2:13,2.1,1,2.1,1,3.3,16
2012/3/31 2:14,2,1,2.1,1,2.9,1
2012/3/31 2:15,2.1,1,2.1,1,3,1
2012/3/31 2:16,2,1,2.1,1,2.5,16
2012/3/31 2:17,2,1,2,1,3.3,16
2012/3/31 2:18,2,1,2,1,3.5,1
2012/3/31 2:19,2,1,2,1,3.2,2
2012/3/31 2:20,2,1,2,1,2.1,16
2012/3/31 2:21,2,1,2,1,2.7,1
2012/3/31 2:22,1.9,1,1.9,1,2.2,1
2012/3/31 2:23,1.9,1,1.9,1,3,16
2012/3/31 2:24,1.8,1,1.9,1,1.9,1
2012/3/31 2:25,1.7,1,1.8,1,2.2,16
2012/3/31 2:26,1.7,1,1.7,1,2.1,1
2012/3/31 2:27,1.6,1,1.7,1,1.9,2
2012/3/31 2:28,1.4,1,1.5,1,1.5,3
2012/3/31 2:29,1.3,1,1.4,1,1.6,2
2012/3/31 2:30,1.3,1,1.3,1,3.2,2
2012/3/31 2:31,1.3,1,1.4,1,2.2,1
2012/3/31 2:32,1.2,1,1.3,1,1.8,2
2012/3/31 2:33,1.1,1,1.2,1,1.3,16
2012/3/31 2:34,1.1,1,1.1,1,1.4,2
2012/3/31 2:35,1,1,1.1,1,1.6,4
2012/3/31 2:36,0.9,1,1,1,1.3,2
2012/3/31 2:37,1,1,1,1,2.1,1
2012/3/31 2:38,0.9,1,1,1,1.8,1
2012/3/31 2:39,0.9,2,1,1,1.6,2
2012/3/31 2:40,0.9,2,0.9,1,1.9,1
2012/3/31 2:41,0.9,2,0.9,1,1.9,2
2012/3/31 2:42,1,2,1,1,2.5,1
2012/3/31 2:43,1.1,2,1.1,1,2.7,2
2012/3/31 2:44,1.2,2,1.2,2,2.7,2
2012/3/31 2:45,1.3,2,1.3,2,1.6,2
2012/3/31 2:46,1.4,2,1.4,2,2.4,2
2012/3/31 2:47,1.4,2,1.4,2,2.6,1
2012/3/31 2:48,1.6,2,1.6,2,3.5,1
2012/3/31 2:49,1.7,2,1.7,2,4.2,3
2012/3/31 2:50,1.8,2,1.8,2,3.6,2
2012/3/31 2:51,1.9,2,1.9,2,2.9,3
2012/3/31 2:52,1.9,2,1.9,2,2.7,3
2012/3/31 2:53,2,2,2,2,3.2,2
2012/3/31 2:54,2,2,2,2,2.1,1
2012/3/31 2:55,2,2,2,2,2.2,2
2012/3/31 2:56,1.9,2,2,2,2.2,2
2012/3/31 2:57,2,2,2,2,4.3,1
2012/3/31 2:58,2,2,2.1,2,4.1,1
2012/3/31 2:59,1.9,2,2,2,2.6,1
2012/3/31 3:00,1.9,2,1.9,2,2.4,1
2012/3/31 3:01,1.8,2,1.9,2,2,1
2012/3/31 3:02,1.8,2,1.8,2,2.1,1
2012/3/31 3:03,1.7,2,1.8,2,2.6,2
2012/3/31 3:04,1.8,2,1.8,2,2.6,1
2012/3/31 3:05,1.8,2,1.8,2,1.8,16
2012/3/31 3:06,1.7,2,1.8,2,1.8,16
2012/3/31 3:07,1.6,2,1.7,2,2,4
2012/3/31 3:08,1.5,2,1.6,2,3,1
2012/3/31 3:09,1.6,2,1.6,2,2.7,2
2012/3/31 3:10,1.6,2,1.6,2,3.2,1
2012/3/31 3:11,1.7,2,1.7,2,3.6,1
2012/3/31 3:12,1.8,1,1.8,2,3.2,1
2012/3/31 3:13,1.8,1,1.8,2,3.1,1
2012/3/31 3:14,1.8,2,1.8,2,3.2,1
2012/3/31 3:15,1.9,2,1.9,2,2.6,1
2012/3/31 3:16,1.9,2,1.9,2,2.7,2
2012/3/31 3:17,2,2,2,2,3.2,1
2012/3/31 3:18,2,2,2,2,3.2,3
2012/3/31 3:19,2,2,2,2,2.5,1
2012/3/31 3:20,1.8,2,2,2,2.2,2
2012/3/31 3:21,1.7,2,1.8,2,2.4,2
2012/3/31 3:22,1.7,2,1.7,2,2.7,3
2012/3/31 3:23,1.6,2,1.7,2,2.7,16
2012/3/31 3:24,1.6,2,1.6,2,3.1,2
2012/3/31 3:25,1.6,2,1.6,2,2.9,2
2012/3/31 3:26,1.6,2,1.6,2,3,1
2012/3/31 3:27,1.7,2,1.7,2,3.1,1
2012/3/31 3:28,1.7,2,1.7,2,3.2,2
2012/3/31 3:29,1.9,2,1.9,2,3.2,1
2012/3/31 3:30,2,2,2,2,3.3,2
2012/3/31 3:31,2,2,2,2,3.3,1
2012/3/31 3:32,2.1,2,2.1,2,3.3,2
2012/3/31 3:33,2.2,2,2.2,2,2.7,2
2012/3/31 3:34,2.1,2,2.2,2,3.3,1
2012/3/31 3:35,2.1,2,2.1,2,3,1
2012/3/31 3:36,2.2,2,2.2,2,3.5,2
2012/3/31 3:37,2.1,2,2.2,2,2.6,2
2012/3/31 3:38,2.1,2,2.1,2,2.5,2
2012/3/31 3:39,2,2,2.1,2,2.2,2
2012/3/31 3:40,1.9,2,1.9,2,2,1
2012/3/31 3:41,1.8,2,1.9,2,3.6,1
2012/3/31 3:42,1.8,2,1.9,2,3.7,3
2012/3/31 3:43,1.9,2,1.9,2,3.2,1
2012/3/31 3:44,1.9,2,2,2,2.4,1
2012/3/31 3:45,1.9,2,1.9,2,2.5,1
2012/3/31 3:46,1.7,2,1.9,2,1.9,16
2012/3/31 3:47,1.7,2,1.7,2,1.6,1
2012/3/31 3:48,1.6,2,1.7,2,1.3,1
2012/3/31 3:49,1.6,2,1.6,2,2.4,2
2012/3/31 3:50,1.6,2,1.6,2,2.7,2
2012/3/31 3:51,1.6,2,1.7,2,3.2,1
2012/3/31 3:52,1.5,2,1.6,2,2.7,2
2012/3/31 3:53,1.4,2,1.5,2,2.7,1
2012/3/31 3:54,1.4,2,1.5,2,2.9,2
2012/3/31 3:55,1.4,2,1.5,2,2.6,2
2012/3/31 3:56,1.5,2,1.5,2,2.5,1
2012/3/31 3:57,1.5,2,1.5,2,2.4,1
2012/3/31 3:58,1.6,2,1.6,2,2.7,2
2012/3/31 3:59,1.6,2,1.7,2,2.1,3
2012/3/31 4:00,1.5,2,1.6,2,1.8,16
2012/3/31 4:01,1.4,2,1.5,2,2.2,1
2012/3/31 4:02,1.5,2,1.5,2,2.1,2
2012/3/31 4:03,1.4,2,1.5,2,2.2,2
2012/3/31 4:04,1.5,2,1.5,2,2.9,1
2012/3/31 4:05,1.6,1,1.6,2,4.1,2
2012/3/31 4:06,1.6,2,1.6,2,3.2,1
2012/3/31 4:07,1.6,2,1.7,2,2.7,1
2012/3/31 4:08,1.6,2,1.6,2,2.9,1
2012/3/31 4:09,1.7,2,1.7,2,2.9,2
2012/3/31 4:10,1.8,2,1.8,2,3.2,2
2012/3/31 4:11,1.8,2,1.8,2,2.1,16
2012/3/31 4:12,1.8,2,1.8,2,2.6,2
2012/3/31 4:13,1.8,2,1.8,2,2.6,3
2012/3/31 4:14,1.7,2,1.8,2,2.5,2
2012/3/31 4:15,1.6,2,1.7,2,1.8,16
2012/3/31 4:16,1.6,2,1.6,2,2.4,1
2012/3/31 4:17,1.5,2,1.6,2,2.6,2
2012/3/31 4:18,1.5,2,1.6,2,2.5,1
2012/3/31 4:19,1.6,2,1.6,2,3.5,2
2012/3/31 4:20,1.6,2,1.6,2,3.1,2
2012/3/31 4:21,1.7,2,1.7,2,2.9,2
2012/3/31 4:22,1.8,2,1.8,2,4.4,2
2012/3/31 4:23,1.8,2,1.8,2,2.6,2
2012/3/31 4:24,1.7,2,1.8,2,1.4,4
2012/3/31 4:25,1.7,2,1.7,2,1.9,1
2012/3/31 4:26,1.7,2,1.7,2,2.2,2
2012/3/31 4:27,1.6,1,1.7,2,2.1,2
2012/3/31 4:28,1.5,1,1.5,2,1.5,16
2012/3/31 4:29,1.4,1,1.5,2,2.2,1
2012/3/31 4:30,1.4,1,1.4,2,2.6,1
2012/3/31 4:31,1.4,1,1.4,2,2.7,1
2012/3/31 4:32,1.2,1,1.3,2,2.2,1
2012/3/31 4:33,1.2,1,1.2,2,2,16
2012/3/31 4:34,1.2,1,1.2,2,1.4,2
2012/3/31 4:35,1.3,1,1.3,2,3.1,16
2012/3/31 4:36,1.3,1,1.3,2,2.6,1
2012/3/31 4:37,1.4,1,1.4,1,2.7,1
2012/3/31 4:38,1.4,1,1.4,1,3.3,2
2012/3/31 4:39,1.4,1,1.4,1,2.7,2
2012/3/31 4:40,1.3,1,1.4,1,1.3,1
2012/3/31 4:41,1.2,1,1.2,1,1,16
2012/3/31 4:42,1,1,1.2,1,0.9,15
2012/3/31 4:43,1,1,1,1,1.4,15
2012/3/31 4:44,1.1,1,1.1,1,2.2,16
2012/3/31 4:45,1.1,1,1.1,1,2.5,16
2012/3/31 4:46,1.2,1,1.2,1,2.7,16
2012/3/31 4:47,1.2,1,1.2,1,2.7,1
2012/3/31 4:48,1.3,1,1.3,1,2.9,1
2012/3/31 4:49,1.4,16,1.4,1,3,2
2012/3/31 4:50,1.5,16,1.5,16,2.1,16
2012/3/31 4:51,1.6,16,1.6,16,2.1,16
2012/3/31 4:52,1.6,16,1.6,16,1.9,16
2012/3/31 4:53,1.7,16,1.7,16,1.8,1
2012/3/31 4:54,1.7,16,1.7,16,1.9,15
2012/3/31 4:55,1.6,16,1.7,16,1.8,1
2012/3/31 4:56,1.6,16,1.6,16,1.9,15
2012/3/31 4:57,1.5,16,1.5,16,2.4,16
2012/3/31 4:58,1.5,16,1.5,16,2.7,16
2012/3/31 4:59,1.5,16,1.5,16,2.9,15
2012/3/31 5:00,1.4,16,1.5,16,2.2,16
2012/3/31 5:01,1.5,16,1.5,16,2.7,16
2012/3/31 5:02,1.5,16,1.5,16,2.2,1
2012/3/31 5:03,1.6,16,1.6,16,2.5,1
2012/3/31 5:04,1.7,16,1.7,16,2.6,1
2012/3/31 5:05,1.8,16,1.8,16,2.2,1
2012/3/31 5:06,1.7,16,1.8,16,2,1
2012/3/31 5:07,1.7,16,1.7,16,1.4,2
2012/3/31 5:08,1.6,1,1.6,16,1.6,1
2012/3/31 5:09,1.5,1,1.6,16,1.5,1
2012/3/31 5:10,1.5,1,1.5,16,1.9,3
2012/3/31 5:11,1.4,1,1.5,16,1.9,1
2012/3/31 5:12,1.3,1,1.4,16,1.1,16
2012/3/31 5:13,1.1,1,1.3,16,0.9,2
2012/3/31 5:14,1.1,1,1.1,16,1.6,1
2012/3/31 5:15,1,1,1.1,16,1.5,16
2012/3/31 5:16,1,1,1,16,1.8,16
2012/3/31 5:17,1,1,1,16,1.4,16
2012/3/31 5:18,1,1,1,1,1.4,16
2012/3/31 5:19,1,1,1,1,2,16
2012/3/31 5:20,1.1,16,1.1,1,1.9,16
2012/3/31 5:21,1.1,16,1.1,1,2,16
2012/3/31 5:22,1.1,16,1.1,1,1.6,16
2012/3/31 5:23,1.3,16,1.3,16,1.8,1
2012/3/31 5:24,1.2,16,1.2,16,1.6,2
2012/3/31 5:25,1.1,16,1.2,16,1,16
2012/3/31 5:26,1.1,16,1.1,16,0.6,1
2012/3/31 5:27,1,1,1.1,16,0.6,3
2012/3/31 5:28,1,1,1,16,0.9,3
2012/3/31 5:29,0.9,1,1,16,1,3
2012/3/31 5:30,0.8,1,0.9,16,0.8,16
2012/3/31 5:31,0.7,1,0.8,16,0.8,15
2012/3/31 5:32,0.7,1,0.7,16,1.3,16
2012/3/31 5:33,0.6,1,0.7,16,1.6,1
2012/3/31 5:34,0.6,1,0.6,16,1.5,2
2012/3/31 5:35,0.7,1,0.7,16,1.8,3
2012/3/31 5:36,0.8,1,0.8,16,1.9,3
2012/3/31 5:37,0.9,1,0.9,1,2,2
2012/3/31 5:38,1,1,1,1,2.2,3
2012/3/31 5:39,1,1,1,1,1.3,1
2012/3/31 5:40,1,1,1,1,0.8,2
2012/3/31 5:41,1,1,1,1,1.3,1
2012/3/31 5:42,1,1,1,1,1.5,15
2012/3/31 5:43,1,1,1,1,1.8,15
2012/3/31 5:44,1,1,1,1,1.8,16
2012/3/31 5:45,1,1,1,1,2.1,1
2012/3/31 5:46,1,1,1,1,1.9,2
2012/3/31 5:47,1,1,1,1,2.1,1
2012/3/31 5:48,1,1,1,1,1.9,16
2012/3/31 5:49,1.1,16,1.1,16,2.2,15
2012/3/31 5:50,1.1,16,1.1,16,2.4,15
2012/3/31 5:51,1.2,16,1.2,16,2.6,1
2012/3/31 5:52,1.4,16,1.4,16,2.7,16
2012/3/31 5:53,1.4,16,1.4,16,2.4,16
2012/3/31 5:54,1.4,16,1.4,16,2.1,16
2012/3/31 5:55,1.5,16,1.5,16,2.6,16
2012/3/31 5:56,1.6,16,1.6,16,3,16
2012/3/31 5:57,1.7,16,1.7,16,3.3,16
2012/3/31 5:58,1.9,16,1.9,16,3.3,16
2012/3/31 5:59,1.9,16,1.9,16,3.2,16
2012/3/31 6:00,2,16,2,16,3.2,16
2012/3/31 6:01,2,16,2,16,2.7,1
2012/3/31 6:02,2,16,2.1,16,3.1,16
2012/3/31 6:03,2.1,16,2.1,16,2.7,14
2012/3/31 6:04,2.1,16,2.2,16,3.3,1
2012/3/31 6:05,2.1,16,2.1,16,2.4,1
2012/3/31 6:06,2.1,16,2.1,16,3.8,16
2012/3/31 6:07,2.1,16,2.2,16,4.7,16
2012/3/31 6:08,2,16,2.1,16,3.6,14
2012/3/31 6:09,2.1,16,2.1,16,3.8,15
2012/3/31 6:10,2,16,2.1,16,3,12
2012/3/31 6:11,2,16,2,16,3.9,12
2012/3/31 6:12,2.1,15,2.1,16,4.7,11
2012/3/31 6:13,2.2,15,2.2,16,6.5,14
2012/3/31 6:14,2.2,15,2.2,16,5.2,16
2012/3/31 6:15,2.3,15,2.3,15,5,16
2012/3/31 6:16,2.5,15,2.5,15,6.4,14
2012/3/31 6:17,2.7,15,2.7,15,5.7,15
2012/3/31 6:18,3,15,3,15,8.9,16
2012/3/31 6:19,3.3,15,3.3,15,9.5,16
2012/3/31 6:20,3.7,15,3.7,15,8.9,15
2012/3/31 6:21,4.1,15,4.1,15,7.4,16
2012/3/31 6:22,4.4,15,4.4,15,9.9,15
2012/3/31 6:23,4.5,15,4.5,15,7.8,15
2012/3/31 6:24,4.6,15,4.6,15,6.8,16
2012/3/31 6:25,4.9,15,4.9,15,11.9,16
2012/3/31 6:26,5.1,15,5.1,15,10.5,15
2012/3/31 6:27,5.3,15,5.3,15,9,16
2012/3/31 6:28,5.3,15,5.3,15,9.2,14
2012/3/31 6:29,5.3,15,5.4,15,10.5,1
2012/3/31 6:30,5.4,15,5.4,15,10.8,15
2012/3/31 6:31,5.4,15,5.5,15,12.6,16
2012/3/31 6:32,5.5,15,5.5,15,11.6,15
2012/3/31 6:33,5.9,15,5.9,15,13.1,15
2012/3/31 6:34,6.5,15,6.5,15,16.1,15
2012/3/31 6:35,6.6,15,6.7,15,12.7,15
2012/3/31 6:36,6.4,15,6.6,15,10.7,15
2012/3/31 6:37,6.6,15,6.6,15,12.2,15
2012/3/31 6:38,6.8,15,6.8,15,11.4,1
2012/3/31 6:39,6.8,15,6.9,15,9,15
2012/3/31 6:40,6.7,15,6.8,15,10.9,15
2012/3/31 6:41,6.7,15,6.7,15,9.8,14
2012/3/31 6:42,6.9,15,7,15,12.3,14
2012/3/31 6:43,6.7,15,7,15,12.6,15
2012/3/31 6:44,6.4,15,6.7,15,9.2,14
2012/3/31 6:45,6.6,15,6.6,15,13.2,16
2012/3/31 6:46,6.8,15,6.8,15,15,16
2012/3/31 6:47,6.9,15,7,15,12.7,14
2012/3/31 6:48,7.2,15,7.2,15,14.8,16
2012/3/31 6:49,7.4,15,7.4,15,11.3,14
2012/3/31 6:50,7.5,15,7.5,15,13.2,16
2012/3/31 6:51,7.6,15,7.6,15,11.9,14
2012/3/31 6:52,7.7,15,7.7,15,13.9,15
2012/3/31 6:53,7.9,15,7.9,15,14.9,16
2012/3/31 6:54,8.1,15,8.1,15,18.6,15
2012/3/31 6:55,8,15,8.2,15,14.7,16
2012/3/31 6:56,8.3,15,8.3,15,12.5,16
2012/3/31 6:57,8.6,15,8.6,15,17.2,15
2012/3/31 6:58,8.7,16,8.8,15,18,14
2012/3/31 6:59,8.7,16,8.7,15,10.9,15
2012/3/31 7:00,8.7,16,8.7,15,15,15
2012/3/31 7:01,8.9,16,8.9,16,14.2,15
2012/3/31 7:02,8.8,16,9,16,13.2,15
2012/3/31 7:03,8.6,16,8.8,16,11.1,16
2012/3/31 7:04,8.3,16,8.7,16,11.7,15
2012/3/31 7:05,8.4,16,8.4,16,15.8,15
2012/3/31 7:06,8.2,16,8.5,16,13.9,14
2012/3/31 7:07,7.9,16,8.2,16,11.3,16
2012/3/31 7:08,7.5,16,7.8,16,10.6,16
2012/3/31 7:09,7.4,16,7.5,16,11.9,15
2012/3/31 7:10,7.5,16,7.6,16,16,16
2012/3/31 7:11,7.2,16,7.5,16,11.1,16
2012/3/31 7:12,7.2,16,7.2,16,15.3,15
2012/3/31 7:13,7.5,16,7.5,16,15.8,16
2012/3/31 7:14,7.6,16,7.6,16,13.8,16
2012/3/31 7:15,7.4,16,7.6,16,11.9,14
2012/3/31 7:16,7.3,16,7.4,16,9.9,14
2012/3/31 7:17,7.2,15,7.3,16,14.3,15
2012/3/31 7:18,7.2,15,7.3,16,11.8,16
2012/3/31 7:19,7.1,15,7.2,16,8.6,15
2012/3/31 7:20,6.8,15,7,16,10.2,15
2012/3/31 7:21,6.8,15,6.9,16,11,15
2012/3/31 7:22,6.7,15,6.8,16,12.6,15
2012/3/31 7:23,6.5,15,6.7,16,11,16
2012/3/31 7:24,6.7,15,6.7,16,11,1
2012/3/31 7:25,6.8,15,6.8,16,16.1,16
2012/3/31 7:26,6.9,15,6.9,16,10.8,16
2012/3/31 7:27,6.9,15,7,15,12.1,16
2012/3/31 7:28,7.1,16,7.1,15,16.2,15
2012/3/31 7:29,7.1,15,7.1,16,11.7,16
2012/3/31 7:30,7.2,15,7.2,15,10.2,16
2012/3/31 7:31,7.2,15,7.3,15,11.9,15
2012/3/31 7:32,7.1,15,7.4,15,14.9,16
2012/3/31 7:33,7.2,15,7.2,15,15.2,15
2012/3/31 7:34,7,16,7.2,15,10.7,16
2012/3/31 7:35,7,16,7,15,13.2,16
2012/3/31 7:36,6.8,16,7,15,8.6,15
2012/3/31 7:37,7.1,15,7.1,15,12.3,15
2012/3/31 7:38,6.8,16,7,15,10.7,15
2012/3/31 7:39,6.8,16,6.9,15,12.3,16
2012/3/31 7:40,7,16,7,15,13.8,15
2012/3/31 7:41,7.1,16,7.1,15,11.8,16
2012/3/31 7:42,7.6,16,7.6,16,14.4,14
2012/3/31 7:43,7.4,16,7.6,16,12.5,16
2012/3/31 7:44,7.7,16,7.7,16,14.8,15
2012/3/31 7:45,7.6,16,7.7,16,13,16
2012/3/31 7:46,7.8,16,7.8,16,13.3,16
2012/3/31 7:47,7.6,16,7.8,16,11.7,15
2012/3/31 7:48,7.7,16,7.8,16,14.3,16
2012/3/31 7:49,7.6,16,7.7,16,9.4,16
2012/3/31 7:50,7.6,16,7.7,16,11.3,16
2012/3/31 7:51,7.4,16,7.5,16,11.8,16
2012/3/31 7:52,7,16,7.3,16,12.3,16
2012/3/31 7:53,7.1,16,7.2,16,11.7,15
2012/3/31 7:54,6.9,16,7.1,16,12.5,16
2012/3/31 7:55,6.8,16,6.9,16,12.3,16
2012/3/31 7:56,6.6,16,6.8,16,9,15
2012/3/31 7:57,6.4,16,6.6,16,8.5,16
2012/3/31 7:58,6.2,16,6.4,16,11.8,16
2012/3/31 7:59,6.4,16,6.4,16,11.8,16
2012/3/31 8:00,6.4,16,6.5,16,12.6,1
2012/3/31 8:01,6.6,16,6.7,16,13.3,15
2012/3/31 8:02,6.7,16,6.7,16,12.4,16
2012/3/31 8:03,6.7,16,6.7,16,11.8,16
2012/3/31 8:04,6.5,16,6.8,16,8.7,16
2012/3/31 8:05,6.3,16,6.5,16,8.1,16
2012/3/31 8:06,6.4,16,6.4,16,8.5,16
2012/3/31 8:07,6.4,16,6.4,16,9.4,16
2012/3/31 8:08,6.5,16,6.5,16,10.5,16
2012/3/31 8:09,6.3,16,6.5,16,11.5,16
2012/3/31 8:10,6.2,16,6.2,16,10.8,15
2012/3/31 8:11,5.9,16,6.1,16,9.8,16
2012/3/31 8:12,5.6,16,5.8,16,10.6,15
2012/3/31 8:13,5.2,16,5.6,16,7.5,16
2012/3/31 8:14,5.5,16,5.5,16,13.6,16
2012/3/31 8:15,5.6,16,5.6,16,11.3,14
2012/3/31 8:16,5.5,16,5.6,16,7.9,16
2012/3/31 8:17,5.7,16,5.7,16,10.3,16
2012/3/31 8:18,5.8,16,5.8,16,15.7,15
2012/3/31 8:19,6,15,6,16,10.6,16
2012/3/31 8:20,5.9,15,6,16,9.4,16
2012/3/31 8:21,5.8,16,5.9,15,6.5,16
2012/3/31 8:22,5.7,16,5.8,15,8.3,16
2012/3/31 8:23,5.8,16,5.8,15,9,16
2012/3/31 8:24,5.6,16,5.7,15,10.5,16
2012/3/31 8:25,5.5,16,5.5,15,8.6,15
2012/3/31 8:26,5.5,16,5.5,15,8.4,15
2012/3/31 8:27,5.5,16,5.6,15,12.1,15
2012/3/31 8:28,5.2,16,5.6,15,9.3,16
2012/3/31 8:29,4.9,16,5.1,15,8.6,16
2012/3/31 8:30,5,16,5,15,11.5,16
2012/3/31 8:31,5.3,15,5.3,16,12.4,15
2012/3/31 8:32,5.3,15,5.4,16,6.9,15
2012/3/31 8:33,5.3,15,5.4,16,7.1,16
2012/3/31 8:34,5.4,15,5.5,16,8.2,15
2012/3/31 8:35,5.4,15,5.4,16,9.2,16
2012/3/31 8:36,5.5,15,5.6,16,9,15
2012/3/31 8:37,5.5,15,5.5,16,8.3,15
2012/3/31 8:38,5.5,15,5.5,15,8.7,15
2012/3/31 8:39,5.7,15,5.7,15,7.6,16
2012/3/31 8:40,5.7,15,5.7,15,11.1,15
2012/3/31 8:41,5.6,15,5.7,15,10,16
2012/3/31 8:42,6,15,6,15,13.5,15
2012/3/31 8:43,6.4,15,6.4,15,12.4,16
2012/3/31 8:44,6.5,15,6.5,15,11.3,15
2012/3/31 8:45,6.7,15,6.7,15,11.3,1
2012/3/31 8:46,6.8,15,6.9,15,11.6,14
2012/3/31 8:47,6.7,15,6.8,15,7.2,16
2012/3/31 8:48,7,15,7,15,11.1,15
2012/3/31 8:49,6.8,15,7,15,9.5,16
2012/3/31 8:50,6.7,15,6.9,15,9.3,15
2012/3/31 8:51,6.5,15,6.7,15,6.8,16
2012/3/31 8:52,6.1,16,6.5,15,8.6,16
2012/3/31 8:53,5.7,16,6.1,15,7.6,16
2012/3/31 8:54,5.5,16,5.6,15,9.3,15
2012/3/31 8:55,5.3,16,5.5,15,9.9,15
2012/3/31 8:56,5.1,16,5.4,15,7.8,16
2012/3/31 8:57,5,16,5.1,15,8.1,15
2012/3/31 8:58,4.5,16,4.9,15,6.7,14
2012/3/31 8:59,4.4,16,4.6,15,6.3,16
2012/3/31 9:00,4.1,16,4.4,15,5.5,1
2012/3/31 9:01,3.9,16,4.1,15,3.1,1
2012/3/31 9:02,3.6,15,3.9,16,2.1,14
2012/3/31 9:03,3.3,15,3.5,16,2.9,16
2012/3/31 9:04,2.9,15,3.3,16,1.8,14
2012/3/31 9:05,2.3,15,2.8,16,1.6,7
2012/3/31 9:06,1.9,15,2.3,16,2.4,9
2012/3/31 9:07,1.7,14,1.9,16,2,7
2012/3/31 9:08,1.6,13,1.7,16,3.5,8
2012/3/31 9:09,1.4,11,1.5,16,4.4,9
2012/3/31 9:10,1.3,10,1.5,16,4.4,9
2012/3/31 9:11,1.4,10,1.4,16,5.1,9
2012/3/31 9:12,1.5,9,1.5,15,3,10
2012/3/31 9:13,1.4,9,1.5,15,2,8
2012/3/31 9:14,1.5,8,1.5,15,1.5,7
2012/3/31 9:15,1.5,9,1.5,15,3.3,10
2012/3/31 9:16,1.6,9,1.6,14,3.8,10
2012/3/31 9:17,1.8,9,1.8,9,4.7,10
2012/3/31 9:18,2,9,2,9,5.8,10
2012/3/31 9:19,2,9,2,9,4.3,10
2012/3/31 9:20,2,9,2,9,3.5,9
2012/3/31 9:21,1.8,9,2,9,4.4,10
2012/3/31 9:22,2,9,2,9,5.8,10
2012/3/31 9:23,2.1,10,2.1,10,4.5,10
2012/3/31 9:24,2.1,10,2.1,10,3,9
2012/3/31 9:25,2.1,10,2.1,10,4.2,9
2012/3/31 9:26,2.1,10,2.2,10,2.7,10
2012/3/31 9:27,1.9,10,2.1,10,1.1,10
2012/3/31 9:28,1.6,10,1.8,10,1.1,1
2012/3/31 9:29,1.4,9,1.6,10,0.9,7
2012/3/31 9:30,1.4,8,1.4,10,3.6,3
2012/3/31 9:31,1.3,7,1.4,10,1.5,4
2012/3/31 9:32,1.2,5,1.3,10,2.2,15
2012/3/31 9:33,1.3,4,1.3,10,4.1,16
2012/3/31 9:34,1.2,3,1.3,10,2.9,15
2012/3/31 9:35,1.2,2,1.2,10,2,13
2012/3/31 9:36,1.2,2,1.2,10,2.6,13
2012/3/31 9:37,1.3,1,1.3,10,2.5,15
2012/3/31 9:38,1.4,16,1.4,9,3.2,16
2012/3/31 9:39,1.6,16,1.6,16,3.3,15
2012/3/31 9:40,1.6,16,1.6,16,2.6,14
2012/3/31 9:41,1.5,15,1.6,16,1.5,15
2012/3/31 9:42,1.5,15,1.5,16,1.4,2
2012/3/31 9:43,1.3,15,1.5,16,1,3
2012/3/31 9:44,1.3,16,1.3,16,1.8,1
2012/3/31 9:45,1.3,16,1.3,16,2,2
2012/3/31 9:46,1.2,1,1.3,16,1.3,16
2012/3/31 9:47,1.1,1,1.2,16,1.8,1
2012/3/31 9:48,1.1,1,1.1,16,2,2
2012/3/31 9:49,1,1,1.1,16,2.6,1
2012/3/31 9:50,1,1,1,16,2.5,2
2012/3/31 9:51,1.1,1,1.1,15,2,2
2012/3/31 9:52,1.1,1,1.1,15,2,16
2012/3/31 9:53,1.3,1,1.3,15,3,16
2012/3/31 9:54,1.3,1,1.3,16,1.9,16
2012/3/31 9:55,1.3,1,1.3,16,1.9,1
2012/3/31 9:56,1.4,1,1.4,1,2.2,14
2012/3/31 9:57,1.5,16,1.5,16,2.4,15
2012/3/31 9:58,1.4,16,1.5,16,1.4,14
2012/3/31 9:59,1.4,16,1.4,16,2.7,1
2012/3/31 10:00,1.4,15,1.4,16,3.7,15
2012/3/31 10:01,1.6,15,1.6,15,5.7,14
2012/3/31 10:02,1.7,15,1.7,15,3.7,15
2012/3/31 10:03,1.8,15,1.8,15,5.1,15
2012/3/31 10:04,2.1,15,2.1,15,7.9,15
2012/3/31 10:05,2.4,15,2.4,15,6.5,14
2012/3/31 10:06,2.6,15,2.6,15,5.4,15
2012/3/31 10:07,2.8,15,2.8,15,5.2,14
2012/3/31 10:08,3.1,14,3.1,14,5.2,12
2012/3/31 10:09,3.3,14,3.3,14,5.1,14
2012/3/31 10:10,3.4,14,3.4,14,3.7,13
2012/3/31 10:11,3.3,14,3.4,14,2.5,13
2012/3/31 10:12,3.3,14,3.3,14,3.5,15
2012/3/31 10:13,3.1,14,3.2,14,3.5,15
2012/3/31 10:14,2.9,14,3.1,14,3,16
2012/3/31 10:15,2.7,14,2.8,14,3.2,13
2012/3/31 10:16,2.6,14,2.7,14,3.6,14
2012/3/31 10:17,2.4,13,2.6,14,4.2,12
2012/3/31 10:18,2.2,13,2.4,14,2.6,11
2012/3/31 10:19,2,13,2.2,14,2.1,12
2012/3/31 10:20,1.9,13,2,14,2.6,13
2012/3/31 10:21,1.8,13,1.9,14,1.8,13
2012/3/31 10:22,1.8,13,1.8,14,2.6,13
2012/3/31 10:23,2,12,2,14,6.7,12
2012/3/31 10:24,2.2,12,2.2,14,6.3,12
2012/3/31 10:25,2.4,12,2.4,14,6.3,13
2012/3/31 10:26,2.4,13,2.4,14,5.4,14
2012/3/31 10:27,2.5,13,2.5,13,4.1,15
2012/3/31 10:28,2.4,13,2.5,13,2.5,12
2012/3/31 10:29,2.5,13,2.5,13,3,11
2012/3/31 10:30,2.4,13,2.5,13,3,15
2012/3/31 10:31,2.6,14,2.6,14,3.1,13
2012/3/31 10:32,2.6,14,2.6,14,3.9,14
2012/3/31 10:33,2.4,14,2.6,14,3.8,16
2012/3/31 10:34,2.3,14,2.4,14,5.1,11
2012/3/31 10:35,2.1,14,2.3,14,5,11
2012/3/31 10:36,2.1,13,2.1,14,6,13
2012/3/31 10:37,2.1,13,2.1,14,5.7,13
2012/3/31 10:38,2.3,13,2.3,14,5,12
2012/3/31 10:39,2.3,13,2.3,14,3.9,12
2012/3/31 10:40,2.3,12,2.3,14,3.6,12
2012/3/31 10:41,2.6,12,2.6,14,8.9,11
2012/3/31 10:42,2.6,12,2.6,14,4.8,12
2012/3/31 10:43,2.6,12,2.6,12,2.2,15
2012/3/31 10:44,2.6,13,2.7,13,4.9,16
2012/3/31 10:45,2.5,13,2.6,13,3.5,15
2012/3/31 10:46,2.5,13,2.5,13,3.3,15
2012/3/31 10:47,2.3,13,2.4,13,4.7,13
2012/3/31 10:48,2.6,14,2.6,13,7.2,14
2012/3/31 10:49,2.9,14,2.9,14,7.9,15
2012/3/31 10:50,3.1,14,3.1,14,6.8,15
2012/3/31 10:51,3,15,3.1,14,5.6,16
2012/3/31 10:52,3.1,15,3.1,14,5.4,16
2012/3/31 10:53,3.2,15,3.2,15,7.4,13
2012/3/31 10:54,3.5,15,3.5,15,7.7,12
2012/3/31 10:55,3.7,15,3.7,15,6.4,14
2012/3/31 10:56,3.8,15,3.8,15,4.4,15
2012/3/31 10:57,3.9,15,3.9,15,6.4,1
2012/3/31 10:58,3.6,15,3.9,15,7.1,15
2012/3/31 10:59,3.4,14,3.6,15,4.3,13
2012/3/31 11:00,3.3,14,3.4,15,5.2,12
2012/3/31 11:01,3.2,14,3.3,15,4.3,13
2012/3/31 11:02,3,14,3.1,15,3.2,2
2012/3/31 11:03,2.8,14,2.9,15,6.5,16
2012/3/31 11:04,2.6,14,2.8,15,3.9,14
2012/3/31 11:05,2.3,14,2.6,15,2.7,12
2012/3/31 11:06,2.2,14,2.3,15,3.7,1
2012/3/31 11:07,2.2,14,2.2,15,4.5,13
2012/3/31 11:08,2.2,14,2.2,15,5.5,15
2012/3/31 11:09,2.3,14,2.3,14,5.5,15
2012/3/31 11:10,2.1,14,2.3,14,1.6,16
2012/3/31 11:11,1.9,14,2,14,2.2,1
2012/3/31 11:12,2.1,14,2.1,14,4.8,16
2012/3/31 11:13,2.2,14,2.2,14,5.6,14
2012/3/31 11:14,2.2,14,2.2,14,6,16
2012/3/31 11:15,2.3,14,2.3,14,4.8,13
2012/3/31 11:16,2.5,14,2.5,14,4.7,16